When you browse on this site, cookies collect data to enhance your experience and personalize the content and advertising you see.
Visit our Privacy Policy to learn more. By continuing to use the site, you agree to this use of cookies and data.
  • In Hungary
  • List of Countries
  • For 7 days
  • Water Temperature
  • Satellite Maps
  • Weather Map
  • News
  • Weather Widgets
  • user-avatar
    Login

    Hourly Weather Santa Fe

    Today, 18 April, Thursday

    Time Temperature Precipitation Wind Pressure Humidity
    00:00 +18°C° 0 mm 2 mps 758 mmHg 72%
    01:00 +18°C° 0 mm 2 mps 758 mmHg 76%
    02:00 +17°C° 0 mm 2 mps 758 mmHg 81%
    03:00 +17°C° 0 mm 2 mps 758 mmHg 84%
    04:00 +17°C° 0 mm 2 mps 758 mmHg 86%
    05:00 +17°C° 0 mm 2 mps 757 mmHg 89%
    06:00 +18°C° 0 mm 2 mps 758 mmHg 85%
    07:00 +19°C° 0 mm 2 mps 758 mmHg 81%
    08:00 +20°C° 0 mm 3 mps 758 mmHg 76%
    09:00 +22°C° 0 mm 3 mps 758 mmHg 67%
    10:00 +25°C° 0 mm 3 mps 758 mmHg 58%
    11:00 +28°C° 0 mm 3 mps 758 mmHg 48%
    12:00 +29°C° 0 mm 2 mps 757 mmHg 46%
    13:00 +30°C° 0 mm 2 mps 756 mmHg 43%
    14:00 +31°C° 0 mm 2 mps 756 mmHg 41%
    15:00 +30°C° 0 mm 2 mps 755 mmHg 44%
    16:00 +29°C° 0 mm 1 mps 755 mmHg 47%
    17:00 +29°C° 0 mm 1 mps 754 mmHg 49%
    18:00 +27°C° 0 mm 1 mps 755 mmHg 53%
    19:00 +26°C° 0 mm 2 mps 755 mmHg 56%
    20:00 +25°C° 0 mm 2 mps 756 mmHg 59%
    21:00 +24°C° 0 mm 2 mps 756 mmHg 63%
    22:00 +24°C° 0 mm 2 mps 756 mmHg 67%
    23:00 +23°C° 0 mm 2 mps 756 mmHg 71%

    Tomorrow, 19 April, Friday

    Time Temperature Precipitation Wind Pressure Humidity
    00:00 +21°C° 0 mm 2 mps 756 mmHg 72%
    01:00 +21°C° 0 mm 2 mps 756 mmHg 74%
    02:00 +20°C° 0 mm 2 mps 756 mmHg 76%
    03:00 +21°C° 0 mm 1 mps 756 mmHg 77%
    04:00 +21°C° 0 mm 1 mps 756 mmHg 77%
    05:00 +20°C° 0 mm 1 mps 756 mmHg 78%
    06:00 +21°C° 0 mm 1 mps 756 mmHg 74%
    07:00 +22°C° 0 mm 1 mps 756 mmHg 70%
    08:00 +23°C° 0 mm 1 mps 757 mmHg 66%
    09:00 +25°C° 0 mm 1 mps 757 mmHg 60%
    10:00 +28°C° 0 mm 1 mps 757 mmHg 54%
    11:00 +30°C° 0 mm 2 mps 757 mmHg 48%
    12:00 +31°C° 0 mm 1 mps 756 mmHg 46%
    13:00 +32°C° 0 mm 1 mps 756 mmHg 44%
    14:00 +33°C° 0 mm 1 mps 755 mmHg 42%
    15:00 +32°C° 0 mm 1 mps 755 mmHg 45%
    16:00 +31°C° 0 mm 1 mps 755 mmHg 49%
    17:00 +30°C° 0 mm 1 mps 754 mmHg 52%
    18:00 +29°C° 0 mm 1 mps 755 mmHg 56%
    19:00 +28°C° 0 mm 1 mps 755 mmHg 59%
    20:00 +26°C° 0 mm 2 mps 756 mmHg 63%
    21:00 +26°C° 0 mm 2 mps 756 mmHg 66%
    22:00 +25°C° 0 mm 1 mps 756 mmHg 70%
    23:00 +25°C° 0 mm 1 mps 757 mmHg 73%

    Day after tomorrow, 20 April, Saturday

    Time Temperature Precipitation Wind Pressure Humidity
    00:00 +24°C° 0 mm 1 mps 757 mmHg 75%
    01:00 +24°C° 0 mm 1 mps 757 mmHg 78%
    02:00 +23°C° 0 mm 1 mps 756 mmHg 80%
    03:00 +23°C° 0 mm 1 mps 756 mmHg 81%
    04:00 +23°C° 0 mm 1 mps 756 mmHg 82%
    05:00 +23°C° 0 mm 1 mps 756 mmHg 83%
    06:00 +24°C° 0 mm 1 mps 757 mmHg 79%
    07:00 +25°C° 0 mm 2 mps 757 mmHg 75%
    08:00 +25°C° 0 mm 2 mps 757 mmHg 71%
    09:00 +28°C° 0 mm 2 mps 757 mmHg 62%
    10:00 +30°C° 0 mm 3 mps 757 mmHg 53%
    11:00 +33°C° 0 mm 3 mps 758 mmHg 44%
    12:00 +33°C° 0 mm 3 mps 757 mmHg 43%
    13:00 +34°C° 0 mm 3 mps 756 mmHg 41%
    14:00 +34°C° 0 mm 3 mps 755 mmHg 40%
    15:00 +31°C° 0.3 mm 3 mps 755 mmHg 47%
    16:00 +30°C° 0.3 mm 3 mps 755 mmHg 54%
    17:00 +28°C° 0.3 mm 2 mps 755 mmHg 61%
    18:00 +27°C° 1.3 mm 3 mps 755 mmHg 68%
    19:00 +25°C° 1.3 mm 3 mps 755 mmHg 76%
    20:00 +24°C° 1.3 mm 3 mps 756 mmHg 83%
    21:00 +24°C° 1 mm 3 mps 756 mmHg 84%
    22:00 +22°C° 1 mm 3 mps 756 mmHg 86%
    23:00 +22°C° 1 mm 3 mps 756 mmHg 88%

    21 April, Sunday

    Time Temperature Precipitation Wind Pressure Humidity
    00:00 +22°C° 1.7 mm 3 mps 756 mmHg 89%
    01:00 +22°C° 1.7 mm 3 mps 756 mmHg 90%
    02:00 +21°C° 1.7 mm 3 mps 756 mmHg 92%
    03:00 +21°C° 1.6 mm 3 mps 756 mmHg 92%
    04:00 +21°C° 1.6 mm 3 mps 756 mmHg 92%
    05:00 +21°C° 1.6 mm 3 mps 756 mmHg 93%
    06:00 +21°C° 0.4 mm 3 mps 757 mmHg 93%
    07:00 +21°C° 0.4 mm 3 mps 758 mmHg 92%
    08:00 +20°C° 0.4 mm 3 mps 758 mmHg 92%
    09:00 +20°C° 0.1 mm 4 mps 759 mmHg 90%
    10:00 +20°C° 0.1 mm 4 mps 759 mmHg 88%
    11:00 +20°C° 0.1 mm 5 mps 760 mmHg 86%
    12:00 +20°C° 0.1 mm 5 mps 759 mmHg 81%
    13:00 +21°C° 0.1 mm 6 mps 759 mmHg 75%
    14:00 +21°C° 0.1 mm 6 mps 759 mmHg 70%
    15:00 +21°C° 0 mm 5 mps 759 mmHg 67%
    16:00 +20°C° 0 mm 4 mps 760 mmHg 64%
    17:00 +20°C° 0 mm 4 mps 760 mmHg 61%
    18:00 +20°C° 0 mm 3 mps 761 mmHg 61%
    19:00 +19°C° 0 mm 3 mps 761 mmHg 61%
    20:00 +19°C° 0 mm 2 mps 762 mmHg 61%
    21:00 +18°C° 0 mm 3 mps 762 mmHg 65%
    22:00 +17°C° 0 mm 3 mps 763 mmHg 68%
    23:00 +17°C° 0 mm 3 mps 763 mmHg 71%

    22 April, Monday

    Time Temperature Precipitation Wind Pressure Humidity
    00:00 +16°C° 0 mm 3 mps 763 mmHg 74%
    01:00 +16°C° 0 mm 3 mps 763 mmHg 76%
    02:00 +14°C° 0 mm 3 mps 763 mmHg 78%
    03:00 +15°C° 0 mm 2 mps 763 mmHg 79%
    04:00 +14°C° 0 mm 2 mps 763 mmHg 80%
    05:00 +14°C° 0 mm 2 mps 764 mmHg 81%
    06:00 +14°C° 0 mm 2 mps 764 mmHg 76%
    07:00 +15°C° 0 mm 2 mps 765 mmHg 71%
    08:00 +16°C° 0 mm 3 mps 765 mmHg 67%
    09:00 +18°C° 0 mm 3 mps 765 mmHg 60%
    10:00 +20°C° 0 mm 3 mps 765 mmHg 52%
    11:00 +22°C° 0 mm 3 mps 765 mmHg 45%
    12:00 +24°C° 0 mm 3 mps 765 mmHg 43%
    13:00 +24°C° 0 mm 3 mps 764 mmHg 41%
    14:00 +25°C° 0 mm 3 mps 763 mmHg 38%
    15:00 +24°C° 0 mm 3 mps 763 mmHg 42%
    16:00 +23°C° 0 mm 2 mps 763 mmHg 45%
    17:00 +23°C° 0 mm 2 mps 763 mmHg 49%
    18:00 +20°C° 0 mm 2 mps 763 mmHg 52%
    19:00 +19°C° 0 mm 2 mps 764 mmHg 56%
    20:00 +17°C° 0 mm 2 mps 764 mmHg 59%
    21:00 +17°C° 0 mm 2 mps 764 mmHg 61%
    22:00 +16°C° 0 mm 2 mps 765 mmHg 64%
    23:00 +16°C° 0 mm 2 mps 765 mmHg 67%

    23 April, Tuesday

    Time Temperature Precipitation Wind Pressure Humidity
    00:00 +15°C° 0 mm 2 mps 765 mmHg 71%
    01:00 +15°C° 0 mm 2 mps 765 mmHg 76%
    02:00 +14°C° 0 mm 2 mps 765 mmHg 80%
    03:00 +14°C° 0 mm 1 mps 765 mmHg 83%
    04:00 +13°C° 0 mm 1 mps 765 mmHg 85%
    05:00 +13°C° 0 mm 1 mps 766 mmHg 88%
    06:00 +14°C° 0 mm 2 mps 766 mmHg 83%
    07:00 +14°C° 0 mm 2 mps 766 mmHg 79%
    08:00 +15°C° 0 mm 2 mps 767 mmHg 74%
    09:00 +17°C° 0 mm 2 mps 767 mmHg 67%
    10:00 +19°C° 0 mm 2 mps 767 mmHg 59%
    11:00 +21°C° 0 mm 2 mps 767 mmHg 51%
    12:00 +21°C° 0 mm 2 mps 766 mmHg 48%
    13:00 +22°C° 0 mm 3 mps 765 mmHg 45%
    14:00 +24°C° 0 mm 3 mps 764 mmHg 42%
    15:00 +22°C° 0 mm 3 mps 764 mmHg 44%
    16:00 +21°C° 0 mm 3 mps 764 mmHg 46%
    17:00 +20°C° 0 mm 3 mps 764 mmHg 48%
    18:00 +19°C° 0 mm 3 mps 764 mmHg 51%
    19:00 +17°C° 0 mm 3 mps 764 mmHg 54%
    20:00 +14°C° 0 mm 3 mps 765 mmHg 57%
    21:00 +14°C° 0 mm 3 mps 765 mmHg 60%
    22:00 +14°C° 0 mm 2 mps 765 mmHg 62%
    23:00 +13°C° 0 mm 2 mps 765 mmHg 64%
    Show more